Terminal Aerodrome Forecast
Issued by NWS Wichita, KS

Home | Current Version | Previous Version | Graphics & Text | Print | Product List | Glossary On
Versions: 1 2 3 4 5 6 7 8 9 10 11 12 13 14 15 16 17 18 19 20 21
000
FTUS43 KICT 210818 AAA
TAFICT
TAF AMD
KICT 210818Z 2108/2206 18020G28KT P6SM SCT025 BKN060
      TEMPO 2108/2110 BKN025
     FM211000 18017G25KT P6SM OVC015
     FM212000 21014KT 6SM SHRA VCTS BKN020CB
     FM212300 31016KT P6SM SHRA VCTS BKN035CB
     FM220000 35010KT P6SM BKN045=

USA.gov is the U.S. government's official web portal to all federal, state and local government web resources and services.